Weather History for Valparaiso, IN

Change the Weather History Date:

Thursday, March 21, 2013

  Actual Average Record
Temperature  
Mean Temperature 24 °F 40 °F  
Max Temperature 34 °F 49 °F 86 °F (2012)
Min Temperature 14 °F 30 °F 3 °F (1906)
Degree Days  
Heating Degree Days 41 25  
Month to date heating degree days 706 611  
Since 1 July heating degree days 5097 5343  
Cooling Degree Days 0 0  
Month to date cooling degree days 0 0  
Year to date cooling degree days 0 0  
Moisture  
Dew Point 10 °F    
Average Humidity 62    
Maximum Humidity 78    
Minimum Humidity 40    
Precipitation  
Precipitation T in 0.08 in 1.16 in (1921)
Month to date precipitation 0.39 1.56  
Year to date precipitation 3.94 4.73  
Sea Level Pressure  
Sea Level Pressure 30.02 in    
Wind  
Wind Speed 7 mph (WNW)    
Max Wind Speed 17 mph    
Max Gust Speed 21 mph    
Visibility 9 miles    
Events Snow    
T = Trace of Precipitation, MM = Missing Value Source: NWS Daily Summary

Daily Weather History Graph

Daily Weather History Graph

Search for Another Location

Airport:

Trip Planner

Search our weather history database for the weather conditions in past years. The results will help you decide how hot, cold, wet, or windy it might be!

Date:

Astronomy

Mar. 21, 2013 Rise Set
Actual Time 6:49 AM CDT 7:01 PM CDT
Civil Twilight 6:21 AM CDT 7:29 PM CDT
Nautical Twilight 5:49 AM CDT 8:01 PM CDT
Astronomical Twilight 5:16 AM CDT 8:34 PM CDT
Moon 1:27 PM CDT (3/21) 3:14 AM CDT (3/21)
Length of Visible Light 13h 07m
Length of Day
12h 12m
Waxing Gibbous, 69% of the Moon is Illuminated
Mar 21
Waxing Gibbous
Mar 27
Full
Apr 2
Last Quarter
Apr 10
New
Apr 18
First Quarter

Hourly Weather History & Observations

Time (CDT) Temp. Windchill Dew Point Humidity Pressure Visibility Wind Dir Wind Speed Gust Speed Precip Events Conditions
12:39 AM 19.4 °F 7.9 °F 8.6 °F 63% 30.00 in 7.0 mi NW 10.4 mph - 0.00 in Snow Light Snow
1:01 AM 19.4 °F 7.2 °F 8.6 °F 63% 30.00 in 8.0 mi NW 11.5 mph - 0.00 in Snow Light Snow
1:31 AM 19.4 °F 9.5 °F 6.8 °F 58% 30.00 in 10.0 mi NW 8.1 mph - 0.00 in   Overcast
1:53 AM 19.0 °F 8.2 °F 9.0 °F 65% 30.03 in 4.0 mi NW 9.2 mph 18.4 mph 0.00 in Snow Light Snow
2:19 AM 19.4 °F 7.9 °F 10.4 °F 68% 30.00 in 2.5 mi NW 10.4 mph - 0.00 in Snow Light Snow
2:26 AM 19.4 °F 8.6 °F 8.6 °F 63% 30.00 in 9.0 mi WNW 9.2 mph - 0.00 in   Overcast
2:53 AM 19.0 °F 8.2 °F 10.0 °F 68% 30.03 in 9.0 mi NW 9.2 mph - 0.00 in   Overcast
3:05 AM 19.4 °F 7.2 °F 10.4 °F 68% 29.99 in 4.0 mi WNW 11.5 mph - 0.00 in Snow Light Snow
3:14 AM 19.4 °F 7.9 °F 10.4 °F 68% 29.99 in 8.0 mi WNW 10.4 mph - 0.00 in Snow Light Snow
3:23 AM 19.4 °F 7.2 °F 10.4 °F 68% 29.99 in 9.0 mi WNW 11.5 mph - 0.00 in   Overcast
3:49 AM 17.6 °F 5.0 °F 8.6 °F 68% 29.99 in 10.0 mi West 11.5 mph - 0.00 in   Overcast
3:53 AM 18.0 °F 5.4 °F 7.0 °F 62% 30.02 in 10.0 mi West 11.5 mph - 0.00 in   Overcast
4:16 AM 17.6 °F 5.0 °F 6.8 °F 63% 29.98 in 4.0 mi West 11.5 mph - 0.00 in Snow Light Snow
4:53 AM 18.0 °F 6.1 °F 7.0 °F 62% 30.02 in 6.0 mi West 10.4 mph - 0.00 in Snow Light Snow
5:04 AM 17.6 °F 5.0 °F 6.8 °F 63% 29.99 in 9.0 mi West 11.5 mph - 0.00 in   Overcast
5:22 AM 17.6 °F 3.7 °F 6.8 °F 63% 29.99 in 10.0 mi West 13.8 mph - 0.00 in   Overcast
5:48 AM 15.8 °F 4.2 °F 6.8 °F 68% 29.99 in 10.0 mi West 9.2 mph - 0.00 in   Scattered Clouds
5:53 AM 15.1 °F 3.3 °F 6.1 °F 68% 30.02 in 10.0 mi West 9.2 mph - 0.00 in   Partly Cloudy
6:53 AM 14.0 °F 3.9 °F 7.0 °F 74% 30.04 in 10.0 mi West 6.9 mph - N/A   Clear
7:53 AM 17.1 °F 5.8 °F 8.1 °F 68% 30.04 in 10.0 mi WNW 9.2 mph - N/A   Clear
8:53 AM 19.9 °F 7.9 °F 9.0 °F 62% 30.05 in 10.0 mi WNW 11.5 mph - N/A   Clear
9:53 AM 23.0 °F 11.1 °F 10.0 °F 58% 30.05 in 10.0 mi WNW 12.7 mph - N/A   Clear
10:53 AM - - - N/A% 30.03 in - North - - N/A   Unknown
11:53 AM - - - N/A% 30.02 in - North - - N/A   Unknown
12:53 PM 30.9 °F 21.7 °F 10.0 °F 42% 30.05 in 10.0 mi West 11.5 mph - N/A   Unknown
1:53 PM 33.1 °F 25.5 °F 10.9 °F 40% 30.04 in 10.0 mi NW 9.2 mph - N/A   Clear
2:53 PM 33.1 °F 26.1 °F 10.9 °F 40% 30.03 in 10.0 mi NNW 8.1 mph - N/A   Clear
3:53 PM 33.1 °F 25.5 °F 12.0 °F 42% 30.02 in 10.0 mi NW 9.2 mph 16.1 mph N/A   Clear
4:53 PM 34.0 °F 27.2 °F 12.9 °F 42% 30.02 in 10.0 mi North 8.1 mph - N/A   Clear
5:53 PM 32.0 °F 25.6 °F 14.0 °F 48% 30.02 in 10.0 mi NNW 6.9 mph - N/A   Clear
6:53 PM 28.9 °F 23.9 °F 15.1 °F 56% 30.03 in 10.0 mi North 4.6 mph - N/A   Clear
7:53 PM 25.0 °F - 15.1 °F 66% 30.03 in 10.0 mi Calm Calm - N/A   Clear
8:53 PM 21.9 °F - 15.1 °F 75% 30.05 in 10.0 mi Calm Calm - N/A   Clear
9:53 PM 24.1 °F - 15.1 °F 69% 30.05 in 10.0 mi Calm Calm - N/A   Clear
10:53 PM 21.9 °F 17.2 °F 16.0 °F 78% 30.03 in 10.0 mi SW 3.5 mph - N/A   Clear
11:53 PM 23.0 °F 18.4 °F 16.0 °F 74% 30.03 in 10.0 mi West 3.5 mph - N/A   Clear